• In Hungary
  • List of Countries
  • For 7 days
  • Water Temperature
  • Satellite Maps
  • Weather Map
  • News
  • Weather Widgets
  • user-avatar
    Login

    Hourly Weather Kota

    Today, 19 August, Saturday

    Time Temperature Precipitation Wind Pressure Humidity
    00:00 +33°C° 0 mm 3 mps 729 mmHg 57%
    01:00 +31°C° 0 mm 3 mps 729 mmHg 59%
    02:00 +31°C° 0 mm 3 mps 729 mmHg 62%
    03:00 +31°C° 0 mm 3 mps 729 mmHg 63%
    04:00 +30°C° 0 mm 3 mps 729 mmHg 64%
    05:00 +30°C° 0 mm 3 mps 729 mmHg 65%
    06:00 +32°C° 0 mm 4 mps 729 mmHg 63%
    07:00 +32°C° 0 mm 4 mps 729 mmHg 61%
    08:00 +33°C° 0 mm 5 mps 730 mmHg 59%
    09:00 +34°C° 0 mm 5 mps 730 mmHg 54%
    10:00 +36°C° 0 mm 5 mps 730 mmHg 49%
    11:00 +37°C° 0 mm 5 mps 730 mmHg 43%
    12:00 +39°C° 0 mm 5 mps 729 mmHg 41%
    13:00 +38°C° 0 mm 4 mps 729 mmHg 39%
    14:00 +40°C° 0 mm 4 mps 728 mmHg 36%
    15:00 +40°C° 0 mm 4 mps 728 mmHg 38%
    16:00 +40°C° 0 mm 4 mps 728 mmHg 40%
    17:00 +38°C° 0 mm 4 mps 728 mmHg 42%
    18:00 +37°C° 0 mm 4 mps 728 mmHg 46%
    19:00 +36°C° 0 mm 3 mps 728 mmHg 51%
    20:00 +35°C° 0 mm 3 mps 728 mmHg 56%
    21:00 +34°C° 0.7 mm 3 mps 729 mmHg 60%
    22:00 +34°C° 0.7 mm 2 mps 729 mmHg 64%
    23:00 +32°C° 0.7 mm 2 mps 729 mmHg 69%

    Tomorrow, 20 August, Sunday

    Time Temperature Precipitation Wind Pressure Humidity
    00:00 +32°C° 0.8 mm 2 mps 729 mmHg 71%
    01:00 +31°C° 0.8 mm 1 mps 729 mmHg 72%
    02:00 +31°C° 0.8 mm 1 mps 729 mmHg 74%
    03:00 +31°C° 0.1 mm 1 mps 728 mmHg 75%
    04:00 +31°C° 0.1 mm 1 mps 728 mmHg 76%
    05:00 +31°C° 0.1 mm 1 mps 728 mmHg 76%
    06:00 +31°C° 0.7 mm 1 mps 728 mmHg 74%
    07:00 +32°C° 0.7 mm 1 mps 729 mmHg 71%
    08:00 +32°C° 0.7 mm 2 mps 729 mmHg 69%
    09:00 +34°C° 1.4 mm 2 mps 729 mmHg 64%
    10:00 +35°C° 1.4 mm 2 mps 729 mmHg 59%
    11:00 +36°C° 1.4 mm 2 mps 729 mmHg 55%
    12:00 +37°C° 0.3 mm 3 mps 728 mmHg 54%
    13:00 +37°C° 0.3 mm 3 mps 728 mmHg 53%
    14:00 +37°C° 0.3 mm 3 mps 727 mmHg 52%
    15:00 +37°C° 0.2 mm 3 mps 727 mmHg 54%
    16:00 +37°C° 0.2 mm 3 mps 726 mmHg 55%
    17:00 +36°C° 0.2 mm 3 mps 726 mmHg 57%
    18:00 +36°C° 0.7 mm 3 mps 726 mmHg 60%
    19:00 +35°C° 0.7 mm 3 mps 727 mmHg 63%
    20:00 +34°C° 0.7 mm 2 mps 727 mmHg 66%
    21:00 +34°C° 0.2 mm 2 mps 727 mmHg 67%
    22:00 +32°C° 0.2 mm 2 mps 727 mmHg 69%
    23:00 +32°C° 0.2 mm 2 mps 728 mmHg 70%

    Day after tomorrow, 21 August, Monday

    Time Temperature Precipitation Wind Pressure Humidity
    00:00 +32°C° 1.3 mm 2 mps 727 mmHg 72%
    01:00 +31°C° 1.3 mm 2 mps 727 mmHg 74%
    02:00 +31°C° 1.3 mm 2 mps 726 mmHg 75%
    03:00 +31°C° 0.5 mm 2 mps 727 mmHg 76%
    04:00 +30°C° 0.5 mm 2 mps 727 mmHg 77%
    05:00 +30°C° 0.5 mm 2 mps 727 mmHg 78%
    06:00 +31°C° 0.1 mm 2 mps 727 mmHg 74%
    07:00 +32°C° 0.1 mm 2 mps 727 mmHg 70%
    08:00 +34°C° 0.1 mm 2 mps 728 mmHg 66%
    09:00 +35°C° 0 mm 3 mps 727 mmHg 61%
    10:00 +36°C° 0 mm 3 mps 727 mmHg 57%
    11:00 +37°C° 0 mm 4 mps 727 mmHg 52%
    12:00 +37°C° 0.3 mm 4 mps 727 mmHg 52%
    13:00 +38°C° 0.3 mm 4 mps 726 mmHg 52%
    14:00 +38°C° 0.3 mm 4 mps 725 mmHg 52%
    15:00 +37°C° 0.1 mm 4 mps 725 mmHg 53%
    16:00 +37°C° 0.1 mm 3 mps 725 mmHg 55%
    17:00 +37°C° 0.1 mm 3 mps 725 mmHg 56%
    18:00 +36°C° 1.6 mm 3 mps 725 mmHg 61%
    19:00 +35°C° 1.6 mm 3 mps 725 mmHg 65%
    20:00 +34°C° 1.6 mm 3 mps 726 mmHg 70%
    21:00 +33°C° 1.5 mm 3 mps 726 mmHg 71%
    22:00 +33°C° 1.5 mm 3 mps 726 mmHg 73%
    23:00 +31°C° 1.5 mm 3 mps 727 mmHg 75%

    22 August, Tuesday

    Time Temperature Precipitation Wind Pressure Humidity
    00:00 +31°C° 0.1 mm 3 mps 726 mmHg 76%
    01:00 +31°C° 0.1 mm 2 mps 726 mmHg 78%
    02:00 +30°C° 0.1 mm 2 mps 725 mmHg 79%
    03:00 +30°C° 0 mm 1 mps 726 mmHg 79%
    04:00 +30°C° 0 mm 1 mps 726 mmHg 80%
    05:00 +30°C° 0 mm 1 mps 726 mmHg 80%
    06:00 +31°C° 0 mm 2 mps 726 mmHg 76%
    07:00 +32°C° 0 mm 2 mps 727 mmHg 72%
    08:00 +34°C° 0 mm 3 mps 727 mmHg 68%
    09:00 +35°C° 0 mm 3 mps 727 mmHg 63%
    10:00 +36°C° 0 mm 4 mps 727 mmHg 58%
    11:00 +37°C° 0 mm 4 mps 727 mmHg 53%
    12:00 +38°C° 0.1 mm 4 mps 727 mmHg 52%
    13:00 +38°C° 0.1 mm 4 mps 726 mmHg 51%
    14:00 +38°C° 0.1 mm 4 mps 726 mmHg 50%
    15:00 +38°C° 0.1 mm 4 mps 725 mmHg 51%
    16:00 +38°C° 0.1 mm 4 mps 725 mmHg 52%
    17:00 +38°C° 0.1 mm 4 mps 725 mmHg 53%
    18:00 +36°C° 2.4 mm 3 mps 726 mmHg 59%
    19:00 +35°C° 2.4 mm 3 mps 726 mmHg 64%
    20:00 +34°C° 2.4 mm 3 mps 727 mmHg 70%
    21:00 +33°C° 1.8 mm 3 mps 727 mmHg 72%
    22:00 +33°C° 1.8 mm 3 mps 727 mmHg 74%
    23:00 +31°C° 1.8 mm 3 mps 727 mmHg 75%

    23 August, Wednesday

    Time Temperature Precipitation Wind Pressure Humidity
    00:00 +31°C° 0 mm 2 mps 727 mmHg 76%
    01:00 +31°C° 0 mm 1 mps 727 mmHg 77%
    02:00 +31°C° 0 mm 1 mps 726 mmHg 77%
    03:00 +30°C° 0 mm 1 mps 727 mmHg 78%
    04:00 +30°C° 0 mm 1 mps 727 mmHg 79%
    05:00 +30°C° 0 mm 1 mps 727 mmHg 79%
    06:00 +31°C° 0 mm 1 mps 728 mmHg 76%
    07:00 +31°C° 0 mm 1 mps 728 mmHg 73%
    08:00 +32°C° 0 mm 1 mps 729 mmHg 70%
    09:00 +33°C° 0.7 mm 1 mps 729 mmHg 66%
    10:00 +35°C° 0.7 mm 2 mps 729 mmHg 62%
    11:00 +36°C° 0.7 mm 2 mps 729 mmHg 58%
    12:00 +35°C° 2.1 mm 2 mps 728 mmHg 60%
    13:00 +35°C° 2.1 mm 2 mps 728 mmHg 62%
    14:00 +35°C° 2.1 mm 2 mps 727 mmHg 63%
    15:00 +35°C° 0.4 mm 2 mps 727 mmHg 65%
    16:00 +34°C° 0.4 mm 2 mps 727 mmHg 67%
    17:00 +34°C° 0.4 mm 2 mps 727 mmHg 69%
    18:00 +34°C° 0.3 mm 2 mps 728 mmHg 71%
    19:00 +32°C° 0.3 mm 1 mps 728 mmHg 73%
    20:00 +32°C° 0.3 mm 1 mps 729 mmHg 76%
    21:00 +31°C° 1.1 mm 1 mps 729 mmHg 77%
    22:00 +31°C° 1.1 mm 1 mps 729 mmHg 78%
    23:00 +31°C° 1.1 mm 1 mps 729 mmHg 78%

    24 August, Thursday

    Time Temperature Precipitation Wind Pressure Humidity
    00:00 +30°C° 0.1 mm 1 mps 729 mmHg 80%
    01:00 +30°C° 0.1 mm 2 mps 728 mmHg 81%
    02:00 +30°C° 0.1 mm 2 mps 728 mmHg 82%
    03:00 +30°C° 0.3 mm 2 mps 728 mmHg 83%
    04:00 +29°C° 0.3 mm 2 mps 728 mmHg 84%
    05:00 +29°C° 0.3 mm 2 mps 729 mmHg 85%
    06:00 +30°C° 0.4 mm 2 mps 729 mmHg 83%
    07:00 +30°C° 0.4 mm 2 mps 729 mmHg 81%
    08:00 +31°C° 0.4 mm 2 mps 730 mmHg 79%
    09:00 +32°C° 0.5 mm 2 mps 730 mmHg 72%
    10:00 +34°C° 0.5 mm 2 mps 730 mmHg 66%
    11:00 +35°C° 0.5 mm 2 mps 730 mmHg 59%
    12:00 +35°C° 2.1 mm 1 mps 729 mmHg 59%
    13:00 +35°C° 2.1 mm 1 mps 729 mmHg 58%
    14:00 +35°C° 2.1 mm 1 mps 728 mmHg 57%
    15:00 +35°C° 0.2 mm 2 mps 728 mmHg 60%
    16:00 +35°C° 0.2 mm 2 mps 728 mmHg 62%
    17:00 +35°C° 0.2 mm 2 mps 728 mmHg 64%
    18:00 +34°C° 0.1 mm 2 mps 728 mmHg 68%
    19:00 +32°C° 0.1 mm 2 mps 728 mmHg 71%
    20:00 +31°C° 0.1 mm 2 mps 729 mmHg 74%
    21:00 +31°C° 0.3 mm 2 mps 729 mmHg 75%
    22:00 +31°C° 0.3 mm 2 mps 728 mmHg 77%
    23:00 +31°C° 0.3 mm 2 mps 728 mmHg 78%
    Show more